CZ-11 R/B, 43161

Orbit data source: Space-Track

CZ-11 R/B, 43161 is space debris in SSO originally from a launch on Fri, 19 Jan 2018 UTC launched from the Jiuquan Satellite Launch Center, China (JSC). Debris objects in space refer to the collection of defunct objects orbiting the Earth. Examples of debris include non-operational satellites, rocket bodies, and fragments generated from explosions, collisions, or faulty payload assembly.

Loading next visibility...
CZ-11 R/B details
Identifier
43161, 2018-008G
Orbit
SSO
Last TLE update5 hours ago
Origin
Flag of CNCASC (CN / PRC)
ManufacturerCALT
MissionSpacecraft
Bus & MotorCZ-11-4, Unknown motor
Mass500 kg wet, 500 kg dry
Launch date (UTC)
2018-01-19 (7 years ago)
Launch vehicleUnknown
Launch site
Jiuquan Satellite Launch Center, China (JSC)
Object type
Payload
Rocket body
Debris
Shape & HBRCyl, 1.5 m
Radar Cross Section2.651 m², Large (>1 m²)

Expand to show TLE details & history

TLE from 5 hours ago
0 CZ-11 R/B
1 43161U 18008G   24361.28132552  .00002195  00000-0  40836-3 0  9997
2 43161  98.2095   2.0172 0365953 255.7889 100.2393 14.31038367361696
Epoch: 2024-12-26T06:45Z
Definitive object data (Epoch: 2024-12-26T06:45:06.524Z)
Latitude0.00002°
Longitude165.47704°
Altitude847.036 km
Speed7.4 km/s
True Right ascension00h 08m 04s
True Declination0° 00' 00"
Sunlit
Object was in daylight at TLE epoch
Visualization TLE readout
Latitude81.62034°
Longitude88.68238°
Altitude1,056.794 km
Speed7.198 km/s
Apparent Right ascension22h 51m 28s
Apparent Declination31° 10' 28"
Sunlit
Object is in daylight
Visualization observer readout
Local Sidereal Time11:34:39
Azimuth9.716° NNE
Elevation-18.207°
Doppler factor1
Orbital elements
Apogee altitude1,047.528 km
Perigee altitude523.226 km
Semi-major axis7,163.514 km
Eccentricity0.0365953
Inclination98.2095°
RAAN2.0172°
Arg. of periapsis255.7889°
True anomaly104.32926°
Mean anomaly100.2393°
Eccentric anomaly102.28802°
Mean motion3.57976 °/min
BSTAR0.00040836
Orbital period100.57 mins
Loading maneuver chart data...
Loading historical data...
Loading historical data...
Loading historical data...
Loading historical data...
Loading historical data...
Loading historical data...
Loading historical data...

CZ-11 R/B Visibility forecast

Observer location: undefined°, undefined

Span
Click to sort rows by Start time (UTC) header in descending order
Start Az.
Max El. time (UTC)
Max El. Az.
Max El.
End time (UTC)
End Az.
9 mins2024-12-26 12:24:11.299Z33.75° NE2024-12-26 12:29:11.299Z104.565° ESE30.005°2024-12-26 12:33:11.299Z157.983° S
8 mins2024-12-26 14:04:11.299Z347.164° N2024-12-26 14:08:11.299Z291.82° WNW28.4°2024-12-26 14:12:11.299Z236.813° WSW
10 mins2024-12-26 23:40:11.299Z135.181° SSE2024-12-26 23:44:11.299Z73.399° E36.805°2024-12-26 23:50:11.299Z358.963° N
9 mins2024-12-27 01:20:11.299Z219.641° SW2024-12-27 01:24:11.299Z271.916° WNW25.113°2024-12-27 01:29:11.299Z323.927° NNW
5 mins2024-12-27 11:56:11.299Z61.514° ENE2024-12-27 11:58:11.299Z86.577° E18.273°2024-12-27 12:01:11.299Z125.007° SE
|